Wind_Speed
31 31 29 24 21 22 23 23 23 24 25 26 26 26 25 25 24 24 23 22 22 21 21 19 12 10 13 17 16 14 16 18 18 18 18 17 15 13 14 14 18 23 26 25 23 19 15 16 17 18 19 21 25 27 27 25 26 24 14 13 17 18 20 23 23 20 18 20 20 20 19 17 17 19 18 17 14 12 12 11 10 10 10 9 9 10
32 30 25 22 23 25 26 25 25 27 27 27 27 27 26 25 25 25 24 23 23 19 17 17 13 10 13 17 18 16 18 20 18 16 16 15 15 14 15 16 19 24 26 25 23 19 15 15 18 21 21 22 25 27 26 26 28 28 21 20 20 20 25 29 27 20 18 21 19 17 17 15 15 18 18 15 13 12 11 10 10 9 9 9 10 11
30 26 23 25 27 28 28 27 27 28 29 29 29 28 27 25 24 25 22 19 19 16 15 17 18 15 12 15 21 21 22 22 17 15 15 15 17 17 16 18 22 26 26 24 22 20 17 16 17 21 24 24 26 27 28 26 26 28 27 25 23 20 21 25 24 19 19 21 18 17 17 14 14 16 15 13 12 12 11 9 10 10 10 11 11 11
25 23 26 29 30 30 28 27 27 29 30 29 29 28 27 26 25 24 22 21 21 18 17 18 19 21 15 14 21 24 24 22 18 16 17 17 19 20 19 20 24 27 27 26 24 22 21 18 17 21 25 26 27 28 29 28 26 25 23 22 22 20 17 12 10 17 22 21 17 16 17 14 12 12 12 12 12 12 10 9 10 11 11 11 11 11
24 27 31 32 31 30 28 27 28 29 29 29 28 27 27 27 25 24 25 26 24 22 21 21 21 24 22 16 18 21 22 23 22 19 20 20 21 25 25 25 26 28 30 29 27 25 23 20 19 22 25 27 28 29 29 28 27 25 25 21 20 25 28 20 13 10 14 16 16 17 17 15 12 12 12 13 12 11 9 9 10 10 10 11 11 11
28 31 32 32 31 30 28 27 28 28 28 29 28 26 26 25 24 24 26 26 25 24 22 23 24 24 24 17 13 15 19 23 23 21 22 24 25 28 27 24 25 27 29 30 29 27 23 21 20 22 25 25 25 27 28 28 28 26 25 23 22 27 31 27 22 15 10 7 7 12 14 13 13 13 14 14 12 10 9 9 10 9 10 11 12 13
31 32 31 32 32 31 31 29 29 29 29 29 28 26 25 24 24 25 27 27 25 24 22 23 24 24 24 21 16 16 18 20 21 22 24 26 27 29 25 22 23 25 26 27 28 27 23 21 22 23 25 25 25 26 27 28 28 25 22 22 25 29 28 25 24 20 14 9 4 4 6 8 12 14 13 12 10 9 9 10 10 9 10 12 13 14
31 32 31 31 31 31 31 30 30 30 30 31 28 24 24 25 26 26 28 29 26 25 24 25 26 26 25 23 20 21 21 21 21 22 23 24 25 26 25 23 22 21 21 23 25 24 19 19 23 24 25 26 27 26 27 27 26 24 21 19 21 26 25 21 21 20 17 13 10 7 5 5 9 11 11 10 10 10 9 10 11 10 11 13 15 16
30 30 29 29 29 30 30 29 30 31 32 32 28 23 23 27 30 29 30 32 30 28 28 28 29 28 27 25 24 24 23 22 20 20 20 22 23 24 25 24 20 17 18 20 22 22 18 16 20 23 26 28 27 25 25 26 25 23 21 18 17 19 22 21 20 19 16 13 11 11 10 9 9 11 11 11 11 11 11 12 12 12 13 15 16 17
31 30 28 28 27 26 27 29 30 32 33 30 26 24 26 30 33 33 34 34 34 34 34 31 30 29 29 28 26 24 24 23 23 21 20 21 21 23 23 22 19 17 19 21 22 22 21 20 20 21 23 24 22 22 23 25 26 25 22 19 17 16 18 19 19 18 16 13 10 10 11 11 13 14 13 12 11 12 12 13 13 13 14 15 16 17
33 33 32 32 29 25 25 27 28 30 29 27 27 29 31 33 34 35 37 37 38 39 34 28 26 28 30 29 27 26 26 27 26 23 19 19 19 21 21 20 20 19 20 22 23 23 24 24 23 22 23 23 20 20 23 26 26 25 23 21 20 17 17 18 19 18 17 15 12 12 11 10 12 15 15 13 12 13 14 14 14 14 15 15 16 16
32 33 34 34 31 28 27 27 28 28 26 26 29 30 32 34 34 34 36 37 38 37 28 21 22 25 27 27 27 26 24 24 23 21 20 20 20 21 22 22 23 22 22 24 27 28 27 26 26 25 25 23 19 18 22 23 23 23 23 23 22 19 18 18 19 19 19 18 16 16 16 13 13 13 14 13 14 15 17 17 17 17 17 17 17 17
33 32 32 32 30 28 27 27 27 25 23 25 30 31 32 33 33 32 32 33 33 28 21 17 19 22 25 28 28 25 22 21 20 19 20 22 23 25 26 26 26 25 26 27 29 31 30 27 25 22 20 19 19 22 24 23 24 26 25 24 22 21 20 19 20 21 21 20 20 19 18 19 20 17 15 14 14 16 17 18 20 20 20 20 20 18
33 33 33 32 30 29 27 25 22 19 20 24 29 31 32 32 33 31 30 28 24 19 16 17 19 24 27 28 28 26 23 22 20 20 20 22 24 26 27 29 29 28 28 29 30 31 30 27 25 23 22 22 25 27 26 25 26 26 24 23 22 22 21 20 20 22 22 22 22 21 18 19 21 19 16 15 15 16 17 18 21 23 23 22 22 20
31 32 32 30 29 27 24 20 17 17 20 23 27 29 30 31 30 27 24 21 18 17 18 19 22 27 29 28 27 25 23 22 22 21 22 22 22 23 25 27 29 29 28 28 28 29 29 29 28 26 26 28 29 27 26 26 26 26 25 24 23 23 23 22 22 23 24 22 21 22 20 18 18 16 15 15 16 17 18 19 22 24 24 24 22 21
29 30 28 25 24 21 17 16 18 20 22 23 26 27 27 25 23 21 21 19 18 19 20 20 23 27 27 25 25 24 23 23 22 22 23 23 23 23 23 24 26 26 27 26 27 27 27 28 29 28 29 30 30 28 26 26 27 29 29 26 25 24 24 24 24 23 23 22 21 23 24 23 22 21 19 17 17 18 19 20 22 24 25 25 23 22
26 27 25 24 22 18 16 18 19 19 20 22 24 23 21 20 18 19 21 21 22 22 21 21 22 24 25 24 24 23 22 22 22 21 22 22 23 22 22 23 23 23 24 25 26 26 27 28 28 29 30 30 31 30 28 28 28 30 29 26 24 26 26 24 24 22 19 19 21 22 24 25 26 25 23 21 21 21 22 22 23 24 24 24 24 23
24 24 24 24 24 21 19 21 20 19 20 21 21 20 18 19 19 20 21 22 24 22 20 22 22 22 24 25 24 23 23 23 23 22 22 22 22 20 21 21 21 22 23 23 24 25 26 28 28 28 29 29 29 29 30 30 30 29 29 27 23 24 23 19 18 18 15 14 17 20 22 24 24 23 23 23 24 25 25 24 23 23 23 23 24 24
23 25 25 25 23 21 20 22 22 21 21 20 20 20 20 20 19 20 20 22 24 23 22 23 24 24 24 25 25 24 23 23 23 23 24 23 21 19 19 20 22 23 24 24 23 23 23 24 25 25 24 24 25 27 28 29 29 28 28 27 23 22 21 19 16 14 13 14 16 19 21 22 22 21 22 24 25 25 26 25 23 23 23 22 23 25
23 27 28 26 23 21 21 23 22 21 22 22 23 25 25 24 22 21 19 20 22 23 22 23 24 24 24 24 25 25 24 23 23 23 23 22 21 19 20 21 24 24 24 24 23 21 20 20 21 20 18 18 18 19 20 21 23 23 23 23 21 20 21 20 16 15 17 18 18 18 19 21 21 21 21 22 23 23 23 24 24 24 23 22 24 27
24 27 28 25 24 23 22 23 20 17 20 24 24 24 23 23 24 23 21 20 21 21 22 22 24 25 24 24 23 23 22 20 21 21 21 21 21 21 22 22 23 24 24 24 21 17 16 16 17 17 16 15 13 13 14 14 14 14 16 18 19 19 20 20 18 17 19 19 17 16 17 18 19 20 21 20 20 20 19 20 23 24 23 23 25 28
27 27 27 25 24 23 23 22 17 13 19 25 25 23 22 22 23 23 22 22 22 22 23 23 24 25 25 23 21 21 20 18 19 20 20 21 20 20 21 21 22 23 22 21 17 15 15 15 16 16 17 18 18 17 17 16 14 8 6 12 17 21 22 21 19 18 18 17 15 14 15 16 18 19 20 20 20 19 18 18 20 23 25 25 25 27
30 28 27 24 24 25 24 23 20 19 23 28 29 27 26 25 24 24 23 23 24 23 24 24 24 25 24 22 20 20 20 20 20 20 21 20 18 16 16 18 19 20 20 17 15 15 16 15 15 16 17 19 21 22 20 16 12 9 4 3 12 19 20 20 19 17 16 15 14 13 16 19 20 20 21 22 22 20 18 17 20 24 26 26 25 27
30 30 29 27 26 27 26 25 25 25 26 30 33 33 31 29 27 25 23 24 26 26 26 26 26 26 24 22 21 20 21 21 20 19 19 18 15 13 13 15 17 18 17 16 15 15 15 14 14 15 15 17 19 18 16 13 9 6 5 2 6 12 14 16 16 14 13 15 16 17 19 21 22 22 22 23 24 23 19 19 22 25 26 26 25 26
29 31 31 30 30 31 30 27 26 28 27 30 34 34 33 32 31 28 25 27 29 29 28 27 27 27 26 23 21 21 20 19 17 16 15 15 14 13 13 14 15 16 16 15 15 15 15 14 14 13 13 14 14 12 10 8 6 6 6 5 5 7 8 10 9 9 10 14 17 19 21 21 22 23 23 24 25 25 21 21 23 26 27 26 25 25
28 30 31 31 32 33 34 31 30 30 29 29 31 32 32 33 32 31 29 29 30 30 30 29 28 28 25 22 21 20 20 17 15 13 12 12 13 14 15 15 15 16 15 15 15 15 15 15 15 13 12 12 12 10 8 7 7 6 7 8 9 8 8 7 7 8 11 14 16 18 19 20 21 23 24 24 24 25 24 23 25 27 28 27 25 26
29 29 30 32 32 32 33 33 32 31 30 29 28 28 29 31 32 31 30 29 30 30 30 31 31 29 27 24 23 22 21 19 18 16 14 14 12 13 15 16 16 15 15 14 14 14 15 15 15 15 14 12 12 10 9 8 8 8 8 8 9 9 9 8 8 11 13 14 14 14 16 19 21 22 24 23 23 24 25 25 26 29 28 27 26 28
30 30 30 31 31 32 33 34 34 33 32 31 29 27 28 30 31 30 29 29 29 28 29 31 31 30 27 25 24 23 23 22 21 19 17 15 12 11 13 15 15 15 14 13 13 13 13 13 14 15 15 14 13 12 10 9 8 9 10 10 10 10 10 10 11 14 15 15 14 13 15 19 22 21 22 23 24 24 25 27 28 29 28 27 27 28
32 32 32 31 30 30 31 33 35 35 34 32 31 29 29 30 30 30 29 28 28 28 28 29 29 28 26 25 25 25 23 22 23 21 19 16 14 13 14 15 15 15 14 14 13 13 12 12 13 14 15 15 14 14 12 11 10 10 10 11 11 11 12 13 14 16 17 16 17 17 17 18 19 20 22 25 26 23 24 26 27 27 26 27 29 29
35 35 33 32 31 30 30 30 32 35 36 35 34 32 31 30 30 31 30 29 28 29 29 30 29 28 27 26 24 21 16 15 16 17 17 17 16 15 15 15 16 16 16 15 14 13 13 12 13 14 15 15 15 15 14 13 12 12 12 13 13 13 14 15 16 17 17 17 18 20 19 18 18 19 21 24 26 23 23 26 28 28 26 27 28 28
36 35 34 32 31 31 31 29 28 31 35 36 37 36 33 30 30 31 31 30 29 29 30 32 32 31 29 27 24 20 17 17 16 16 17 18 17 16 16 16 17 17 16 16 16 14 14 13 13 13 14 14 14 14 14 13 13 13 13 14 14 15 16 16 17 17 16 17 18 20 20 20 19 19 20 23 25 23 23 28 30 28 26 26 27 26
39 38 36 33 32 32 31 29 28 28 31 35 37 37 35 33 32 32 32 31 31 31 32 33 33 33 32 29 26 24 22 22 21 21 21 20 18 17 16 16 16 17 17 17 16 15 15 15 14 13 13 13 13 13 13 13 13 14 14 15 14 15 15 16 18 18 16 17 19 20 21 20 19 19 20 23 25 23 24 28 30 26 25 25 25 26
39 39 38 36 36 35 34 33 31 29 29 33 35 36 35 34 33 32 32 32 31 31 32 33 33 33 32 30 28 26 24 23 21 21 23 23 21 19 18 17 17 18 19 18 17 17 17 16 16 15 14 14 14 13 13 13 14 14 14 15 15 14 13 14 17 18 17 18 18 18 19 18 18 19 20 23 24 23 24 27 28 26 25 24 26 29
34 37 37 36 37 38 38 36 33 32 31 32 33 34 34 33 32 31 31 32 32 32 33 33 32 31 29 27 24 23 22 22 20 21 22 24 24 22 20 20 20 20 21 21 20 19 19 19 18 17 16 16 15 14 14 15 15 14 14 15 15 14 13 13 15 16 16 16 17 17 17 16 18 20 21 23 24 24 25 27 29 27 25 25 28 30
31 34 33 31 32 37 40 39 36 34 32 30 30 32 33 33 31 30 29 28 28 28 28 29 29 28 27 25 23 21 21 20 21 22 23 24 25 24 23 23 23 23 23 22 22 22 21 20 20 19 18 17 16 15 16 16 17 16 16 16 15 15 14 13 14 15 15 16 17 16 15 15 17 19 22 23 23 24 26 27 29 28 27 27 29 27
30 32 31 26 25 28 32 35 37 35 33 29 28 29 31 31 30 29 28 26 25 23 22 23 26 28 28 27 26 25 24 23 23 23 23 24 25 25 25 25 24 25 25 25 24 24 23 21 21 22 21 20 18 17 17 17 18 18 18 17 17 16 15 14 14 14 14 15 17 15 13 15 18 19 21 22 22 25 28 30 33 30 27 29 30 26
30 30 29 27 23 21 21 25 30 33 33 29 26 27 28 28 27 27 27 27 26 25 23 22 25 28 29 28 28 28 28 26 25 24 24 24 25 26 26 26 26 26 27 27 25 24 23 23 23 23 22 21 20 18 18 18 19 19 19 19 18 17 17 16 15 15 13 13 14 14 14 17 18 18 20 21 21 25 29 32 33 31 29 31 29 25
29 28 27 27 25 21 19 18 21 26 28 26 24 24 25 26 25 26 27 26 26 25 23 21 22 25 27 28 29 29 29 29 28 27 27 27 27 28 28 28 28 28 28 28 27 24 22 22 24 24 23 22 21 20 19 19 19 20 20 20 20 19 18 17 17 16 15 13 13 14 15 17 20 19 19 21 21 24 28 30 30 31 32 31 27 25
25 25 26 27 26 24 21 19 19 20 22 22 21 22 23 24 24 25 26 27 26 25 24 21 21 22 25 27 28 29 29 29 29 29 30 30 30 30 30 30 30 30 29 29 29 28 26 24 25 25 24 24 23 23 22 21 21 21 21 21 21 20 18 18 18 18 17 15 15 15 15 15 20 22 22 24 24 26 27 28 29 31 31 29 27 27
22 22 22 24 25 24 23 22 21 21 21 20 20 20 22 23 24 25 26 27 26 26 26 26 25 25 26 27 29 30 30 30 30 29 30 32 33 32 32 31 32 32 32 31 31 31 30 28 27 27 26 26 25 25 24 24 23 23 23 23 22 21 20 19 19 20 19 18 16 16 15 13 13 17 21 24 24 26 26 27 29 31 30 28 28 29
22 22 22 22 22 23 24 24 24 24 23 22 21 20 20 21 24 26 27 27 27 28 28 29 29 29 29 29 31 32 32 33 33 32 32 32 34 34 33 32 32 33 33 32 32 32 31 30 29 29 29 28 27 27 27 27 26 25 25 25 25 24 22 21 20 21 21 21 19 18 18 15 12 13 19 23 25 28 29 30 32 35 34 32 31 31
21 21 21 20 20 21 23 24 25 26 25 24 23 21 19 20 23 25 26 27 27 27 27 28 29 29 29 30 31 32 33 34 34 35 34 33 34 35 35 34 33 33 33 33 32 32 32 32 31 30 29 29 29 29 29 29 28 27 27 27 27 26 25 23 22 22 23 23 21 19 20 18 15 16 20 23 25 29 31 33 36 39 39 38 36 35
21 22 21 20 18 19 21 22 23 24 24 24 23 22 20 20 21 22 23 23 23 23 23 25 26 26 27 27 28 29 31 31 32 32 33 33 34 36 37 36 34 34 34 34 33 33 34 34 33 32 31 30 30 30 31 30 30 29 28 28 27 27 27 26 24 24 24 24 23 21 21 21 21 21 21 21 22 25 28 32 36 39 41 42 39 37
18 20 20 19 18 17 17 17 17 18 19 20 20 19 18 18 18 19 20 20 19 18 19 20 21 22 23 24 24 24 25 25 26 27 29 30 32 35 37 37 36 35 35 34 34 35 35 35 35 35 35 33 32 32 32 32 31 30 30 29 28 28 28 27 26 26 25 25 25 23 22 22 23 24 24 23 22 22 23 25 27 28 33 38 39 37
13 14 15 15 15 15 14 13 13 14 15 16 16 16 17 17 17 18 18 18 17 16 16 17 17 18 19 19 19 18 19 20 21 22 23 24 26 29 32 35 36 36 36 36 36 37 37 37 37 36 35 35 33 33 34 34 33 31 31 31 30 29 28 27 26 26 26 26 26 25 23 22 23 23 24 24 23 22 22 23 23 22 23 27 30 30
11 10 12 13 13 14 14 14 13 12 13 15 15 17 17 17 17 16 16 16 16 16 16 17 18 19 19 19 18 18 19 19 20 20 21 22 22 23 25 27 29 30 32 33 34 35 36 36 36 35 34 34 34 35 35 34 33 32 31 31 31 31 30 28 27 27 26 26 26 26 26 24 23 23 23 23 22 22 23 23 23 22 22 22 23 23
12 9 10 10 10 12 13 13 14 14 15 15 16 16 16 16 15 15 15 15 15 16 16 17 18 19 20 20 21 21 21 22 22 23 23 24 24 24 24 24 25 26 27 28 29 30 31 32 33 34 33 32 33 35 36 34 32 32 32 31 30 30 30 29 29 28 28 28 28 28 28 27 25 24 23 23 24 25 26 25 24 23 24 24 24 24
13 10 9 8 9 11 12 13 14 16 16 16 16 16 15 15 14 13 13 13 14 15 16 17 18 19 20 21 22 22 23 24 24 25 26 26 26 27 27 27 27 27 28 28 28 29 30 30 31 31 31 31 33 35 35 32 30 31 33 33 32 31 30 30 30 30 29 29 29 29 29 29 27 26 26 26 26 25 26 27 26 25 25 25 24 24
14 11 10 9 8 9 11 12 14 15 15 14 14 13 13 12 12 11 12 12 13 14 15 17 18 19 20 21 22 24 24 25 26 27 28 29 29 29 30 30 30 30 30 30 30 30 30 30 30 31 32 33 35 35 33 31 30 31 32 33 33 33 32 32 32 32 31 30 29 29 29 29 28 27 27 27 27 26 25 26 27 27 27 26 26 26
13 11 11 11 10 10 11 12 12 13 12 11 11 10 10 10 10 10 11 12 13 14 15 17 18 19 21 23 24 26 27 28 29 30 31 32 32 32 33 33 34 34 34 33 33 33 33 33 34 34 35 37 37 36 33 33 33 34 34 34 33 33 33 33 33 33 32 31 30 29 29 29 28 28 27 27 28 28 27 28 28 29 30 31 30 29
13 12 13 13 13 11 10 11 11 11 10 9 9 8 8 8 9 10 10 12 13 14 15 16 18 19 21 23 25 27 29 30 32 33 34 35 36 36 37 37 37 37 37 37 37 37 37 37 37 38 39 39 39 38 38 38 37 36 35 35 34 33 32 31 31 30 29 28 28 28 30 30 30 30 30 29 29 30 30 30 29 30 32 33 33 32
Wind_Direction
207 209 211 210 208 210 211 206 200 196 195 199 204 207 209 209 211 219 225 233 242 242 241 239 221 194 208 229 241 248 250 259 274 278 275 277 281 283 283 287 288 288 287 285 287 284 273 264 264 260 250 247 247 257 270 271 277 283 272 277 287 281 277 269 262 258 246 239 242 243 246 253 242 218 215 226 231 231 227 218 211 212 219 223 226 231
208 208 206 206 208 211 211 206 202 201 201 205 210 211 212 213 218 228 234 243 247 244 243 252 250 214 202 227 245 255 258 263 274 281 282 287 289 287 287 292 290 286 286 285 284 282 270 255 256 260 258 256 258 263 268 267 274 284 287 285 286 293 287 269 258 255 240 235 239 238 240 247 232 214 215 224 226 227 224 215 211 216 222 226 230 233
209 207 203 205 208 209 209 203 201 205 207 208 211 212 210 213 221 230 236 240 239 240 249 258 266 257 216 215 237 248 257 265 274 281 283 286 285 286 286 287 285 283 285 285 284 282 274 258 251 258 261 260 261 264 266 266 269 276 277 277 283 293 285 266 251 243 238 236 237 237 237 239 225 213 214 219 221 222 220 215 215 218 224 228 230 231
207 203 202 205 206 206 205 200 199 206 210 210 211 212 212 215 222 231 236 235 229 229 239 247 259 264 245 216 224 236 249 264 277 278 275 278 280 281 280 277 278 283 286 284 280 280 279 269 256 258 263 262 261 263 262 261 267 273 274 281 287 268 255 273 264 237 237 238 238 237 232 229 223 213 211 214 216 217 218 219 216 214 219 226 228 226
200 201 202 204 204 203 201 198 201 206 210 212 212 212 216 221 226 232 234 234 233 230 230 236 244 255 257 236 215 226 243 257 268 271 268 267 268 269 272 273 275 280 283 281 278 279 281 275 259 254 261 264 261 258 256 259 267 272 271 278 287 270 265 289 309 273 252 243 236 232 228 225 223 219 217 214 212 215 220 222 215 210 214 221 223 216
198 202 204 204 202 201 199 196 202 208 211 215 216 214 217 222 227 230 229 229 233 234 234 241 244 249 259 256 233 233 241 248 257 263 262 260 259 261 263 265 267 270 274 277 276 277 280 274 258 249 253 260 259 252 251 260 269 273 274 272 275 280 286 300 308 304 293 271 233 225 228 224 220 223 222 216 215 218 224 226 220 217 220 219 212 203
200 202 203 206 203 200 200 196 200 207 212 219 222 217 216 220 222 222 223 224 228 232 240 252 254 253 260 268 270 257 246 246 253 258 260 261 262 261 258 258 263 264 266 269 272 278 280 270 259 251 249 253 254 252 252 260 269 273 278 276 270 275 285 298 303 296 285 287 286 232 226 221 220 223 222 222 227 228 227 228 226 224 224 217 207 200
202 201 201 207 206 204 203 201 204 209 215 221 222 218 215 216 216 215 216 220 225 231 239 252 258 259 259 262 263 259 254 254 255 255 256 259 261 260 258 260 265 266 271 275 279 288 288 274 264 256 252 252 252 256 259 262 268 274 279 282 278 275 276 280 287 286 277 272 277 271 257 234 219 214 216 229 241 243 239 236 232 224 217 215 210 208
202 205 204 208 212 214 212 208 210 213 217 221 219 212 211 211 211 213 215 218 223 228 233 242 252 256 257 258 257 257 258 259 259 259 258 259 260 257 257 260 264 271 281 286 289 292 295 288 274 265 266 262 256 261 267 269 272 278 281 281 279 278 277 274 274 279 279 271 268 267 260 251 234 218 220 235 246 254 252 240 231 220 215 214 212 212
202 205 206 208 213 220 220 217 219 219 219 220 216 206 205 207 209 212 215 219 222 224 226 234 245 252 257 263 262 258 259 260 264 266 262 261 261 260 263 266 270 276 279 282 286 287 289 290 281 274 273 271 267 267 270 273 273 275 278 277 274 270 269 268 265 268 275 274 263 252 247 244 238 230 227 233 241 249 247 233 221 215 215 214 210 209
207 208 208 209 209 212 216 218 222 225 221 217 214 209 205 209 212 212 215 219 222 225 229 234 243 251 258 262 260 258 259 259 262 263 255 252 255 260 268 272 273 274 274 279 284 285 284 285 285 280 271 271 274 269 268 271 270 271 274 271 268 264 259 257 257 258 264 270 263 253 256 250 237 228 224 226 230 232 231 225 219 217 216 216 213 210
210 213 214 214 211 208 210 212 216 220 216 207 205 207 207 211 215 215 217 221 224 230 234 234 237 244 251 255 257 258 257 253 253 251 243 243 247 254 264 269 271 273 276 280 282 281 280 283 289 283 266 262 269 273 271 269 270 275 274 268 266 265 263 260 258 257 259 265 264 261 266 266 253 236 221 219 224 226 227 227 227 226 222 222 222 220
208 212 213 213 211 208 208 211 214 216 214 204 201 204 207 210 215 217 219 222 226 231 231 224 231 240 244 249 255 256 250 243 243 242 240 242 245 249 256 262 267 270 274 277 278 278 279 282 287 280 258 255 274 283 278 272 277 279 269 264 266 266 267 265 258 254 253 258 260 258 262 263 259 251 230 218 223 228 229 229 231 230 225 224 225 224
207 209 210 208 208 208 208 212 214 214 215 207 202 205 208 211 214 217 220 224 227 230 224 221 232 242 244 247 251 253 249 243 241 241 243 245 248 251 255 258 261 264 267 271 274 275 276 279 284 280 268 272 286 285 278 276 281 281 269 263 266 267 269 266 258 252 250 253 253 251 255 255 249 246 234 223 226 231 234 234 234 232 228 225 224 222
206 208 211 209 210 213 213 214 212 214 215 208 205 208 211 215 219 221 225 229 232 233 228 224 229 237 243 246 250 252 254 254 252 251 251 252 256 259 260 260 261 264 267 269 272 273 274 276 281 285 282 284 288 285 281 281 281 282 280 272 266 266 266 260 256 251 247 248 245 239 239 239 237 241 243 238 235 235 236 238 238 236 232 227 224 224
208 209 210 210 216 220 214 207 207 212 214 209 206 209 210 214 221 224 227 230 231 230 228 224 227 234 240 244 248 251 254 257 259 260 261 261 263 265 265 262 261 263 266 270 273 273 274 274 277 282 283 284 286 285 285 285 281 282 283 275 267 264 256 251 252 249 242 239 236 232 231 234 240 247 253 252 245 240 238 238 239 238 235 229 225 226
206 210 210 208 213 217 209 206 212 214 214 209 204 205 206 207 213 220 224 228 228 227 226 227 229 234 239 243 246 250 254 257 258 262 266 266 267 268 267 266 265 264 265 269 273 274 273 274 276 279 282 284 287 287 284 282 282 283 279 271 265 261 254 250 249 245 238 229 225 226 227 232 239 245 250 251 247 242 239 238 238 238 238 233 227 227
198 204 210 209 209 213 213 216 221 217 212 209 203 201 204 205 208 214 218 222 224 222 224 231 234 237 242 246 249 253 258 261 264 267 269 269 269 270 271 272 273 273 272 273 276 278 278 278 279 281 282 284 289 290 284 280 279 281 276 266 261 259 250 237 233 234 229 222 219 220 221 224 230 236 242 245 242 238 235 235 236 237 237 233 229 226
196 195 204 209 208 211 212 214 218 216 211 208 202 199 206 210 211 214 216 221 223 218 218 229 236 237 240 245 249 253 257 260 263 266 268 270 271 270 271 272 274 276 278 278 279 281 281 279 279 281 285 290 293 292 289 284 278 274 270 261 254 251 238 217 214 223 219 218 221 219 216 214 217 224 232 238 239 236 233 232 233 235 234 231 226 222
201 197 200 205 205 208 208 205 208 216 215 209 203 203 209 215 216 216 218 223 226 226 225 231 238 242 243 245 248 252 253 257 261 264 269 275 276 274 273 272 274 277 280 280 280 280 280 280 279 280 289 299 300 299 299 296 284 271 261 252 243 240 232 217 211 214 213 214 217 217 215 210 211 217 222 230 235 236 236 235 234 233 230 227 224 219
205 203 200 201 203 208 213 207 205 214 216 211 210 213 217 219 221 220 219 221 222 226 233 238 242 247 249 248 249 252 254 257 262 265 271 276 280 280 277 275 275 276 277 277 276 277 277 278 279 280 284 288 295 312 323 326 313 280 251 242 233 225 224 216 207 208 213 217 219 222 223 219 219 221 221 226 234 237 239 240 238 235 229 226 224 219
204 205 201 201 202 206 213 212 204 199 205 209 212 219 222 220 220 219 219 224 226 225 231 238 243 249 252 253 253 255 258 261 264 267 271 276 283 286 278 272 270 270 271 272 271 271 271 272 276 278 277 274 274 288 308 329 342 332 259 234 223 217 219 217 211 211 216 224 229 234 236 234 234 233 229 230 236 239 241 242 241 238 233 229 227 224
201 202 202 202 199 201 210 213 207 196 196 205 210 213 215 215 220 222 220 226 233 233 235 238 244 250 253 255 257 258 262 267 269 270 270 272 283 291 276 262 261 263 265 268 267 265 266 268 273 275 275 274 274 280 292 309 331 354 11 217 209 211 216 219 219 218 222 233 241 244 245 241 238 238 237 236 239 242 244 242 238 235 235 232 227 224
199 200 201 200 197 200 208 211 212 209 201 203 208 210 212 213 219 226 227 230 234 236 238 240 245 251 253 254 255 259 264 270 274 274 270 268 276 285 271 256 257 261 263 265 264 263 266 269 273 277 278 279 281 285 289 294 304 319 334 314 207 207 215 221 226 229 232 236 238 242 246 244 240 238 239 241 242 243 245 242 235 231 233 232 226 223
201 203 202 200 198 199 203 204 209 213 210 208 209 210 213 216 218 222 226 231 235 236 238 239 242 249 253 254 254 259 266 272 276 273 269 269 268 266 261 257 257 260 261 263 264 266 271 274 276 279 280 281 284 287 283 280 283 278 275 267 233 222 233 238 239 240 237 235 236 239 243 245 244 242 243 247 244 241 243 241 233 229 230 230 227 225
203 207 206 206 203 200 201 204 207 210 210 212 214 213 214 217 219 220 220 226 233 237 240 242 243 247 251 253 255 260 264 268 274 273 273 279 271 257 254 256 258 258 258 261 264 267 271 275 277 278 278 279 281 281 272 263 263 262 256 251 246 247 251 253 253 249 241 237 239 242 245 248 251 249 249 251 245 237 237 236 231 228 228 228 226 223
208 213 212 212 212 207 204 208 214 214 212 214 219 218 216 217 219 220 221 224 231 236 240 244 246 249 253 255 258 260 260 263 269 270 273 279 273 259 256 257 259 261 262 264 265 267 269 271 274 274 274 275 277 279 275 267 265 264 258 254 256 260 261 261 266 266 258 254 254 253 251 251 253 251 248 245 239 234 234 233 229 228 227 227 226 221
211 217 219 219 220 217 211 210 216 219 218 220 223 222 220 221 222 224 225 228 233 237 240 244 247 250 255 258 261 262 259 258 261 264 267 266 260 257 260 260 261 264 266 268 268 267 268 268 270 271 272 273 274 278 279 278 277 275 270 267 264 268 272 272 271 270 269 267 263 255 251 252 252 251 243 233 229 234 237 232 228 228 229 229 227 222
213 217 222 224 227 227 220 213 214 216 218 220 222 222 223 225 226 228 230 232 236 239 243 246 249 253 257 260 263 264 259 255 256 258 258 253 250 255 259 259 259 261 262 264 266 266 266 266 267 269 271 272 274 277 279 280 279 278 278 278 275 274 276 275 273 273 274 272 263 253 251 256 257 254 244 228 221 230 237 228 226 231 233 231 227 222
216 219 222 225 229 233 232 225 218 217 218 220 222 224 225 226 227 230 234 237 240 242 245 249 252 255 258 259 260 262 259 254 255 255 252 249 249 251 250 250 252 255 258 260 261 262 263 263 264 267 270 272 274 276 279 279 278 276 275 275 277 278 277 277 277 278 280 276 264 253 250 253 255 254 246 229 219 227 232 219 220 233 237 233 227 222
217 220 224 227 229 233 236 234 227 222 222 223 224 225 227 227 229 232 235 239 244 246 247 249 252 254 257 259 261 263 264 261 259 256 252 250 248 244 241 243 249 254 257 259 260 261 263 263 264 266 269 272 274 275 276 275 273 272 269 269 271 273 276 279 279 279 279 275 266 256 251 250 249 247 243 232 224 229 229 215 216 232 240 235 226 220
218 221 226 229 231 233 234 234 231 227 225 225 225 226 228 231 233 234 235 239 244 246 248 249 251 251 254 258 262 264 264 262 259 255 250 247 244 240 237 239 247 252 255 256 259 261 263 264 266 267 269 273 275 275 275 272 268 265 265 266 267 269 273 278 281 280 276 270 265 257 249 247 244 242 240 234 228 228 227 218 216 230 242 237 226 220
221 225 231 233 234 236 236 234 233 230 227 225 224 226 229 233 235 235 236 239 243 245 246 247 248 250 253 257 261 261 261 259 257 251 246 243 240 239 239 241 245 250 252 252 253 256 260 263 266 269 271 275 279 281 280 276 272 267 265 266 269 274 279 282 286 287 279 269 264 257 248 242 239 241 240 234 226 224 225 220 217 227 241 238 225 220
223 225 230 235 237 237 238 237 234 232 230 227 226 227 230 233 234 235 238 241 243 246 246 244 244 248 253 256 258 258 257 256 255 250 244 241 240 241 242 244 246 249 251 252 251 252 255 258 262 267 270 273 278 283 286 284 280 274 269 269 272 281 289 291 292 291 282 272 264 252 244 242 243 242 239 234 228 227 228 222 215 224 239 235 222 219
226 226 229 234 236 235 235 236 234 231 232 231 230 230 231 232 234 236 239 241 243 247 247 242 241 245 250 251 251 251 254 256 256 252 247 242 242 243 242 242 245 248 250 252 253 254 254 257 260 263 265 268 272 277 280 282 283 281 277 276 277 283 290 292 292 290 281 272 265 247 233 241 253 248 237 231 230 229 227 219 215 225 236 228 217 217
230 231 232 234 234 229 227 228 227 227 230 231 230 229 229 230 233 236 239 242 245 251 252 246 244 247 250 251 250 251 256 259 255 251 248 244 243 245 243 241 242 245 249 251 253 256 257 258 260 261 262 265 267 270 272 276 280 282 282 282 282 283 286 287 289 290 285 275 269 256 237 239 249 244 230 226 230 229 222 214 215 225 229 219 214 221
235 237 236 234 233 228 223 222 221 222 227 231 231 230 229 230 232 234 239 244 249 254 257 254 250 248 249 251 252 253 256 258 253 247 246 245 243 245 245 245 243 243 247 249 251 254 256 256 257 258 261 263 265 266 267 270 274 278 280 282 283 283 283 282 282 285 288 282 268 259 248 238 236 234 228 225 228 227 222 219 221 224 220 214 218 229
239 241 239 236 235 233 232 229 224 224 228 234 237 236 234 235 236 237 240 244 248 251 254 255 253 250 249 250 252 253 254 255 252 247 245 244 245 245 246 247 246 245 246 248 249 249 249 249 252 255 257 260 262 263 265 267 269 273 276 279 281 282 282 282 282 281 285 286 276 267 256 232 217 220 230 231 229 228 227 228 230 225 217 217 226 237
236 239 240 239 239 239 240 240 238 235 237 241 242 240 239 240 240 240 241 243 244 246 249 251 252 252 251 250 251 251 252 253 253 250 246 245 246 246 247 247 247 247 246 247 250 250 247 245 247 250 253 255 258 261 263 264 266 268 272 275 277 280 279 278 280 280 280 282 280 278 272 241 212 210 219 226 232 234 231 228 226 221 218 224 235 241
232 236 239 240 240 241 244 244 244 244 244 245 245 243 242 242 241 242 243 244 244 246 247 249 250 252 254 255 254 253 252 253 254 253 250 248 247 247 248 247 247 247 246 245 247 250 251 249 247 247 249 251 254 257 260 262 263 266 268 271 273 275 275 274 275 277 279 280 279 277 276 260 228 218 220 220 224 231 231 227 222 218 221 231 239 241
232 235 239 241 240 239 241 243 244 244 244 245 246 246 244 244 243 243 244 245 246 247 248 250 251 253 255 255 256 255 255 254 254 254 253 251 249 247 247 247 247 248 248 248 247 248 250 251 251 249 249 250 252 254 257 259 261 263 265 268 269 270 271 271 271 272 275 277 279 277 274 267 254 248 243 231 222 222 224 225 223 222 227 235 239 239
231 233 236 240 240 237 238 240 242 242 242 244 246 246 245 243 242 243 244 245 247 248 249 249 251 252 252 251 252 254 256 256 255 254 253 252 249 248 247 247 248 248 249 251 251 250 251 252 252 252 251 252 253 254 255 257 258 259 261 264 266 268 268 268 268 268 271 273 274 274 273 269 263 259 253 242 232 228 227 226 226 226 228 234 237 236
231 232 234 237 239 238 237 238 241 243 243 243 244 244 244 243 242 243 244 244 245 246 246 246 247 248 248 248 250 252 255 257 257 256 254 252 251 248 247 247 249 251 252 253 254 254 254 254 254 254 253 253 254 255 256 257 257 258 258 260 262 265 267 268 268 267 268 270 271 270 268 266 263 260 258 255 250 245 240 237 236 234 230 230 233 235
228 229 230 232 234 236 236 236 239 241 241 241 241 240 240 240 240 241 242 243 242 241 243 244 245 245 246 247 248 251 254 256 258 257 255 255 254 252 250 249 250 252 253 254 255 256 256 255 256 256 256 255 253 254 255 256 256 257 258 257 258 260 263 266 268 267 266 267 269 269 266 263 261 260 260 261 260 258 255 251 249 246 238 232 232 236
216 219 220 222 224 224 225 226 230 232 232 235 233 226 223 227 230 232 234 236 236 235 236 237 240 244 248 249 250 252 255 257 258 259 259 259 258 257 255 253 252 253 254 256 257 258 258 256 255 256 257 257 255 254 253 253 254 256 257 257 257 256 258 260 262 263 263 264 266 268 267 264 263 262 261 261 260 260 260 259 259 258 249 238 234 235
213 210 210 212 213 212 211 210 211 211 210 213 211 205 206 213 217 219 221 226 229 230 231 232 235 241 246 248 248 250 253 255 256 257 258 259 259 259 258 258 257 256 257 258 259 260 260 259 257 255 255 256 256 255 253 252 252 253 256 257 257 257 257 258 259 260 260 260 261 264 266 265 264 262 259 257 257 258 260 260 259 256 251 246 245 246
208 194 193 198 196 198 200 199 198 195 195 202 207 207 207 210 210 211 215 221 225 229 232 235 238 242 245 248 249 250 252 253 255 256 257 258 259 260 260 261 260 260 260 260 261 261 261 260 259 257 255 254 254 254 254 254 252 250 251 254 256 256 257 258 259 260 261 260 260 260 262 261 258 254 252 252 255 256 255 255 256 255 253 253 254 254
199 188 181 182 178 180 184 187 191 193 196 203 208 209 210 210 210 214 221 225 231 235 238 241 244 247 250 252 254 255 255 256 257 257 258 258 259 260 260 260 260 260 260 261 261 261 262 261 261 259 256 251 250 252 256 258 255 250 249 251 253 256 257 258 259 260 260 261 261 261 261 260 256 252 251 251 251 250 249 251 255 258 258 256 252 249
201 197 189 185 178 172 173 177 181 183 185 190 194 197 201 205 209 217 224 231 236 241 244 247 250 252 254 255 256 257 258 258 258 259 259 258 258 258 258 258 258 258 258 259 259 259 259 258 258 258 255 252 252 255 259 263 263 258 255 254 255 257 258 259 259 259 259 258 257 256 255 255 254 253 253 252 250 249 250 251 252 253 254 252 249 244
197 194 189 185 179 172 173 177 178 177 178 182 188 193 198 205 214 223 232 240 245 250 253 256 258 259 260 260 260 259 259 259 258 258 258 258 258 258 257 256 256 256 256 256 256 256 255 253 252 253 253 255 257 260 261 262 263 262 260 258 257 257 259 260 260 261 260 258 258 256 254 253 253 254 254 252 250 251 253 255 256 255 253 251 249 246
182 181 180 175 166 163 171 176 179 182 185 189 197 207 214 223 232 240 247 253 257 262 265 265 266 267 267 267 266 264 263 263 261 260 259 259 259 259 258 257 256 256 255 254 254 254 254 252 251 251 251 253 255 257 257 258 260 262 262 260 259 257 256 254 255 256 256 254 253 254 257 258 258 260 260 258 255 254 254 255 257 257 255 254 254 253
Height
5743 5745 5748 5753 5757 5759 5760 5763 5765 5765 5765 5766 5768 5770 5772 5774 5776 5777 5778 5780 5781 5782 5782 5783 5786 5787 5787 5787 5787 5787 5788 5789 5789 5790 5790 5790 5790 5791 5791 5791 5791 5790 5789 5790 5790 5790 5791 5792 5790 5790 5790 5790 5791 5790 5790 5790 5789 5786 5785 5786 5788 5790 5789 5788 5787 5788 5790 5790 5791 5792 5794 5795 5796 5798 5799 5800 5802 5802 5803 5804 5803 5804 5805 5806 5806 5807
5739 5743 5748 5752 5754 5755 5757 5759 5761 5762 5762 5764 5766 5768 5770 5772 5774 5776 5777 5778 5778 5779 5779 5780 5782 5785 5786 5786 5785 5785 5785 5786 5787 5787 5787 5787 5788 5789 5790 5790 5790 5788 5788 5788 5787 5787 5789 5790 5789 5789 5789 5790 5789 5788 5789 5790 5788 5784 5783 5783 5785 5787 5785 5783 5783 5785 5786 5787 5788 5790 5792 5794 5795 5797 5798 5799 5800 5801 5802 5802 5802 5803 5803 5804 5805 5806
5739 5744 5748 5749 5750 5751 5753 5756 5758 5759 5760 5761 5763 5766 5769 5770 5773 5774 5775 5775 5775 5776 5776 5777 5778 5781 5784 5786 5785 5784 5782 5782 5784 5784 5785 5785 5786 5788 5789 5789 5788 5786 5785 5786 5785 5785 5786 5788 5789 5788 5788 5788 5787 5787 5788 5789 5787 5785 5784 5785 5786 5788 5783 5778 5780 5783 5783 5784 5786 5788 5790 5792 5794 5795 5796 5798 5799 5800 5800 5801 5801 5801 5802 5803 5804 5804
5740 5743 5744 5744 5745 5747 5750 5753 5755 5755 5757 5759 5761 5764 5767 5768 5770 5771 5772 5772 5772 5773 5774 5775 5776 5777 5780 5784 5784 5783 5781 5781 5782 5783 5783 5784 5785 5785 5787 5788 5787 5785 5783 5783 5782 5782 5784 5786 5787 5787 5786 5785 5785 5785 5786 5785 5784 5784 5785 5786 5788 5788 5783 5778 5780 5781 5780 5781 5784 5786 5789 5791 5793 5794 5795 5796 5798 5798 5799 5799 5800 5800 5800 5801 5802 5803
5737 5738 5739 5740 5742 5745 5748 5750 5752 5753 5755 5757 5759 5762 5765 5766 5768 5769 5769 5769 5769 5770 5771 5772 5773 5774 5776 5780 5782 5782 5781 5780 5780 5781 5781 5782 5782 5782 5784 5785 5785 5783 5781 5780 5780 5781 5782 5783 5784 5784 5783 5783 5782 5783 5783 5782 5781 5781 5782 5784 5785 5783 5779 5778 5780 5780 5780 5781 5782 5784 5787 5789 5790 5792 5793 5794 5796 5797 5797 5797 5798 5798 5799 5799 5800 5801
5732 5733 5736 5737 5740 5743 5745 5748 5750 5751 5753 5754 5757 5760 5763 5764 5765 5767 5767 5767 5767 5768 5769 5770 5771 5772 5773 5776 5780 5781 5779 5778 5777 5778 5778 5778 5778 5779 5780 5781 5781 5780 5779 5778 5778 5779 5780 5780 5781 5781 5781 5780 5780 5781 5781 5779 5779 5779 5780 5782 5783 5780 5776 5776 5777 5778 5780 5781 5781 5783 5785 5786 5788 5790 5791 5793 5794 5795 5795 5796 5796 5796 5796 5797 5798 5799
5728 5730 5734 5735 5737 5740 5742 5745 5747 5749 5750 5752 5755 5758 5760 5762 5763 5764 5764 5764 5766 5767 5769 5769 5770 5771 5771 5773 5776 5776 5775 5775 5775 5776 5776 5776 5776 5777 5778 5778 5778 5777 5777 5777 5776 5777 5778 5778 5778 5778 5778 5778 5778 5778 5778 5777 5777 5778 5780 5780 5781 5780 5778 5777 5776 5777 5780 5780 5781 5782 5783 5785 5787 5788 5790 5791 5792 5793 5794 5794 5794 5794 5794 5794 5796 5797
5726 5729 5731 5733 5736 5737 5740 5742 5744 5747 5748 5749 5753 5757 5759 5760 5761 5762 5762 5762 5764 5766 5767 5767 5767 5768 5770 5771 5772 5771 5771 5772 5772 5773 5774 5775 5775 5775 5775 5775 5775 5776 5776 5775 5775 5775 5775 5776 5776 5775 5774 5774 5775 5775 5775 5775 5776 5777 5779 5780 5779 5778 5778 5779 5779 5779 5780 5780 5780 5781 5781 5783 5784 5786 5788 5789 5790 5791 5792 5792 5792 5792 5792 5792 5793 5795
5725 5728 5730 5732 5734 5736 5738 5740 5742 5744 5745 5747 5751 5755 5757 5757 5758 5759 5759 5760 5761 5763 5764 5765 5764 5765 5767 5767 5768 5768 5768 5768 5769 5770 5772 5772 5773 5773 5772 5772 5773 5774 5774 5774 5773 5773 5773 5773 5773 5773 5773 5772 5772 5773 5773 5774 5774 5776 5777 5778 5778 5777 5776 5777 5778 5778 5778 5778 5778 5778 5779 5781 5782 5784 5785 5786 5787 5788 5789 5790 5790 5790 5791 5791 5792 5793
5722 5724 5727 5729 5731 5734 5737 5739 5740 5741 5743 5746 5749 5752 5754 5755 5755 5756 5757 5757 5758 5759 5761 5763 5763 5763 5763 5763 5764 5765 5765 5765 5767 5767 5768 5769 5769 5769 5768 5768 5769 5770 5771 5771 5771 5771 5770 5770 5770 5771 5772 5772 5770 5770 5772 5772 5772 5773 5774 5775 5775 5774 5773 5773 5773 5774 5775 5775 5776 5776 5776 5777 5779 5780 5781 5782 5783 5785 5786 5788 5788 5789 5789 5790 5790 5791
5718 5720 5722 5724 5727 5730 5733 5736 5737 5739 5742 5745 5746 5748 5750 5751 5752 5753 5754 5755 5755 5756 5758 5762 5762 5761 5760 5759 5760 5762 5762 5762 5764 5765 5765 5766 5766 5766 5766 5766 5766 5767 5768 5769 5769 5769 5768 5767 5768 5769 5770 5770 5769 5769 5770 5770 5769 5770 5771 5771 5771 5771 5771 5770 5770 5771 5772 5773 5774 5775 5775 5775 5775 5776 5778 5779 5780 5782 5783 5785 5786 5787 5788 5788 5789 5789
5716 5717 5719 5722 5724 5726 5729 5731 5733 5735 5739 5741 5742 5744 5746 5747 5748 5750 5751 5753 5753 5754 5758 5762 5761 5759 5758 5756 5756 5758 5759 5760 5761 5762 5762 5763 5764 5764 5764 5764 5764 5765 5766 5766 5767 5766 5766 5766 5766 5767 5766 5767 5767 5766 5768 5768 5767 5767 5768 5768 5768 5768 5769 5770 5769 5770 5770 5771 5772 5773 5774 5775 5775 5775 5775 5776 5778 5779 5781 5782 5783 5784 5785 5786 5786 5788
5713 5715 5717 5720 5721 5723 5725 5728 5730 5732 5734 5736 5738 5740 5742 5743 5745 5747 5749 5751 5752 5755 5758 5759 5758 5756 5754 5753 5752 5754 5756 5757 5758 5759 5760 5761 5761 5762 5762 5762 5763 5763 5764 5764 5764 5764 5764 5764 5765 5764 5763 5764 5764 5764 5764 5764 5764 5764 5764 5764 5765 5765 5766 5768 5768 5768 5768 5769 5770 5771 5772 5773 5774 5774 5774 5774 5775 5777 5778 5779 5780 5781 5782 5783 5783 5785
5712 5713 5714 5716 5718 5720 5722 5725 5728 5730 5732 5733 5736 5737 5739 5740 5742 5744 5746 5749 5751 5754 5756 5756 5755 5753 5751 5750 5750 5751 5753 5754 5755 5757 5758 5758 5759 5759 5760 5760 5761 5761 5762 5762 5762 5762 5762 5762 5762 5762 5762 5761 5761 5761 5761 5761 5760 5760 5760 5760 5761 5762 5763 5764 5765 5766 5766 5766 5767 5769 5771 5771 5772 5773 5773 5773 5773 5774 5775 5777 5777 5778 5779 5779 5780 5781
5710 5711 5713 5715 5716 5718 5722 5724 5727 5729 5729 5731 5734 5735 5737 5738 5740 5742 5745 5747 5749 5751 5751 5752 5751 5749 5748 5749 5749 5750 5751 5753 5754 5755 5755 5756 5757 5758 5758 5758 5758 5759 5759 5760 5760 5760 5760 5759 5759 5759 5758 5758 5758 5758 5757 5757 5757 5757 5757 5757 5757 5758 5759 5760 5761 5762 5762 5763 5764 5767 5768 5769 5770 5771 5771 5771 5772 5772 5773 5774 5774 5775 5776 5777 5778 5778
5707 5709 5712 5715 5716 5718 5722 5724 5725 5726 5727 5729 5732 5733 5734 5737 5739 5741 5743 5744 5746 5747 5747 5748 5748 5746 5747 5747 5748 5748 5750 5751 5752 5753 5754 5754 5755 5756 5757 5757 5756 5757 5757 5757 5757 5757 5757 5756 5756 5756 5755 5754 5755 5755 5754 5754 5754 5755 5755 5755 5755 5755 5755 5755 5756 5757 5758 5759 5761 5763 5765 5766 5767 5767 5768 5769 5769 5770 5770 5771 5771 5772 5773 5774 5775 5776
5706 5708 5711 5714 5715 5717 5720 5721 5722 5724 5725 5727 5730 5732 5733 5735 5737 5738 5740 5741 5742 5743 5744 5745 5745 5744 5745 5745 5746 5746 5748 5749 5749 5750 5751 5752 5753 5754 5754 5754 5754 5755 5755 5754 5754 5754 5754 5753 5753 5753 5752 5751 5751 5750 5750 5751 5752 5752 5752 5752 5753 5752 5753 5753 5754 5755 5755 5755 5757 5759 5761 5762 5763 5764 5765 5766 5766 5767 5767 5768 5768 5769 5770 5772 5773 5773
5704 5707 5710 5711 5713 5715 5717 5719 5720 5722 5723 5725 5728 5731 5731 5732 5733 5735 5736 5737 5738 5740 5742 5742 5742 5743 5743 5743 5744 5745 5745 5746 5746 5747 5748 5749 5750 5751 5751 5751 5751 5752 5752 5751 5751 5751 5750 5750 5750 5750 5750 5749 5749 5748 5747 5748 5749 5749 5748 5748 5749 5750 5750 5752 5754 5754 5754 5754 5755 5757 5758 5759 5760 5761 5762 5763 5763 5764 5765 5765 5766 5767 5768 5769 5770 5771
5703 5705 5707 5709 5711 5713 5715 5716 5717 5719 5720 5722 5726 5728 5728 5728 5730 5732 5733 5734 5735 5737 5738 5738 5739 5740 5741 5741 5742 5743 5743 5744 5744 5744 5745 5746 5747 5748 5748 5749 5749 5748 5749 5748 5748 5747 5747 5746 5746 5747 5747 5747 5746 5744 5743 5743 5744 5744 5743 5742 5745 5747 5747 5749 5751 5752 5752 5752 5752 5754 5755 5755 5757 5758 5759 5760 5761 5762 5762 5763 5764 5765 5765 5766 5768 5768
5701 5702 5704 5706 5709 5710 5711 5713 5715 5717 5718 5720 5722 5724 5725 5726 5727 5729 5731 5732 5734 5735 5736 5736 5736 5737 5739 5740 5740 5741 5742 5743 5743 5743 5743 5744 5744 5745 5746 5746 5746 5746 5746 5746 5745 5745 5744 5744 5744 5744 5744 5744 5743 5742 5741 5740 5739 5738 5738 5739 5741 5743 5744 5745 5748 5749 5749 5748 5749 5751 5752 5753 5754 5755 5757 5758 5758 5759 5760 5761 5762 5762 5763 5764 5764 5765
5698 5700 5702 5704 5706 5708 5709 5711 5713 5715 5717 5718 5719 5721 5723 5725 5725 5726 5728 5729 5731 5733 5733 5734 5734 5735 5736 5737 5738 5739 5740 5741 5742 5742 5742 5742 5742 5743 5743 5743 5743 5743 5743 5743 5743 5743 5743 5742 5742 5742 5743 5743 5742 5741 5740 5738 5736 5734 5735 5736 5738 5740 5741 5742 5745 5746 5746 5747 5748 5750 5752 5754 5755 5755 5755 5756 5756 5757 5758 5759 5760 5761 5761 5761 5761 5763
5693 5697 5700 5702 5704 5707 5708 5709 5711 5713 5715 5716 5718 5719 5720 5722 5723 5724 5725 5727 5728 5730 5731 5731 5732 5732 5733 5735 5737 5737 5739 5739 5740 5740 5740 5740 5741 5741 5740 5740 5740 5740 5740 5740 5741 5742 5741 5741 5740 5740 5741 5741 5741 5740 5739 5738 5736 5733 5733 5734 5735 5736 5737 5739 5741 5743 5745 5746 5748 5751 5753 5754 5754 5754 5755 5755 5754 5755 5756 5756 5757 5758 5759 5759 5759 5761
5690 5694 5698 5701 5704 5705 5705 5706 5709 5710 5711 5713 5714 5715 5717 5719 5720 5721 5723 5725 5726 5727 5728 5729 5729 5729 5731 5733 5735 5736 5736 5737 5737 5737 5738 5738 5739 5738 5737 5737 5737 5737 5738 5739 5739 5740 5740 5739 5739 5739 5739 5739 5739 5739 5739 5739 5737 5735 5734 5734 5735 5735 5737 5738 5739 5740 5742 5745 5748 5750 5750 5750 5750 5750 5751 5751 5751 5752 5753 5754 5754 5755 5756 5756 5757 5759
5688 5691 5695 5698 5701 5702 5702 5704 5706 5707 5708 5709 5710 5712 5714 5716 5717 5719 5722 5723 5723 5724 5725 5726 5727 5727 5729 5731 5733 5733 5734 5734 5735 5735 5736 5737 5737 5737 5736 5735 5735 5735 5736 5737 5737 5738 5738 5738 5738 5737 5737 5737 5737 5737 5738 5738 5738 5737 5737 5736 5736 5737 5738 5739 5739 5740 5741 5743 5745 5746 5746 5746 5746 5746 5746 5747 5747 5748 5750 5750 5751 5752 5753 5753 5755 5756
5686 5688 5691 5694 5697 5698 5699 5701 5703 5704 5706 5707 5707 5710 5712 5713 5715 5717 5720 5720 5720 5721 5722 5723 5725 5725 5726 5729 5730 5731 5732 5733 5733 5734 5734 5735 5735 5735 5735 5734 5734 5734 5734 5735 5735 5736 5736 5736 5737 5736 5736 5735 5735 5735 5736 5737 5737 5737 5737 5738 5738 5738 5738 5739 5740 5741 5741 5742 5742 5743 5743 5743 5743 5743 5744 5744 5744 5745 5746 5747 5748 5749 5750 5751 5752 5754
5684 5686 5689 5691 5693 5695 5697 5698 5700 5701 5703 5704 5706 5708 5710 5711 5713 5715 5716 5717 5718 5719 5720 5721 5722 5723 5724 5726 5728 5729 5730 5731 5732 5732 5733 5733 5733 5733 5733 5733 5733 5733 5733 5733 5733 5734 5734 5734 5735 5735 5735 5734 5734 5734 5735 5735 5736 5736 5737 5737 5737 5738 5738 5739 5739 5739 5739 5739 5740 5740 5740 5740 5740 5740 5741 5741 5741 5742 5743 5744 5745 5746 5747 5749 5750 5751
5682 5684 5686 5689 5691 5693 5696 5697 5698 5700 5702 5703 5705 5706 5708 5709 5711 5712 5714 5715 5716 5717 5718 5719 5719 5720 5722 5724 5726 5727 5728 5729 5730 5730 5730 5731 5731 5732 5732 5731 5731 5731 5731 5731 5732 5732 5732 5732 5732 5733 5733 5733 5732 5732 5733 5734 5734 5735 5735 5735 5736 5736 5736 5737 5737 5736 5736 5737 5738 5738 5737 5736 5736 5736 5737 5738 5738 5739 5740 5741 5742 5743 5744 5746 5747 5747
5680 5681 5683 5686 5688 5691 5694 5696 5697 5698 5700 5702 5703 5705 5706 5708 5709 5711 5712 5713 5713 5715 5716 5716 5717 5718 5720 5721 5723 5724 5725 5726 5727 5727 5728 5729 5730 5730 5730 5730 5730 5729 5730 5730 5730 5730 5730 5730 5730 5731 5731 5731 5731 5731 5731 5732 5732 5732 5732 5733 5733 5733 5733 5734 5734 5733 5733 5734 5735 5735 5733 5732 5732 5733 5734 5735 5736 5736 5737 5738 5739 5740 5741 5743 5744 5744
5677 5678 5680 5683 5686 5688 5690 5693 5695 5696 5698 5699 5701 5702 5704 5706 5707 5709 5709 5710 5711 5712 5713 5714 5715 5717 5718 5719 5720 5721 5722 5723 5723 5724 5725 5726 5727 5728 5728 5728 5728 5728 5728 5728 5728 5728 5728 5728 5729 5729 5729 5729 5728 5729 5729 5729 5730 5730 5730 5730 5730 5730 5730 5730 5730 5729 5730 5731 5732 5731 5730 5730 5730 5731 5731 5732 5733 5735 5735 5736 5737 5738 5739 5740 5740 5741
5675 5676 5678 5681 5683 5685 5687 5690 5692 5694 5695 5697 5698 5699 5701 5703 5705 5706 5707 5708 5709 5710 5711 5712 5713 5714 5715 5716 5717 5718 5719 5720 5720 5721 5722 5724 5725 5725 5726 5726 5726 5726 5726 5726 5726 5726 5726 5726 5727 5727 5727 5726 5726 5726 5727 5727 5727 5728 5728 5727 5727 5727 5727 5727 5726 5726 5727 5728 5727 5727 5728 5728 5728 5729 5729 5729 5731 5732 5733 5735 5736 5737 5737 5738 5738 5740
5673 5674 5676 5679 5681 5682 5684 5687 5689 5692 5693 5694 5695 5697 5699 5701 5702 5703 5704 5705 5706 5707 5708 5709 5710 5711 5712 5713 5714 5715 5716 5717 5718 5719 5720 5721 5722 5723 5723 5724 5724 5724 5724 5724 5724 5724 5724 5724 5724 5724 5724 5724 5724 5724 5724 5725 5725 5725 5725 5725 5725 5724 5724 5723 5723 5724 5724 5724 5724 5724 5725 5725 5726 5726 5727 5727 5728 5730 5731 5732 5734 5734 5735 5736 5737 5738
5670 5672 5673 5677 5679 5680 5681 5684 5686 5688 5690 5691 5692 5694 5696 5697 5699 5701 5702 5703 5703 5705 5706 5706 5707 5708 5709 5710 5711 5712 5713 5714 5715 5716 5717 5718 5719 5720 5721 5721 5722 5722 5722 5722 5722 5723 5722 5722 5722 5722 5722 5722 5722 5722 5722 5722 5722 5722 5722 5722 5722 5722 5721 5720 5720 5720 5720 5720 5720 5720 5720 5721 5723 5723 5724 5724 5726 5727 5728 5730 5731 5732 5733 5734 5735 5736
5668 5670 5671 5674 5676 5677 5678 5681 5683 5685 5687 5687 5689 5691 5692 5694 5696 5698 5699 5700 5701 5702 5703 5703 5704 5705 5706 5707 5708 5709 5709 5710 5712 5713 5714 5715 5716 5716 5717 5718 5719 5719 5719 5720 5720 5720 5720 5720 5720 5720 5720 5720 5720 5720 5720 5720 5720 5719 5719 5719 5719 5719 5718 5718 5717 5716 5716 5716 5716 5716 5717 5718 5720 5720 5721 5722 5723 5725 5726 5727 5729 5730 5731 5732 5733 5733
5666 5668 5669 5671 5673 5674 5675 5677 5680 5682 5683 5684 5686 5687 5689 5691 5692 5694 5696 5697 5698 5699 5699 5700 5701 5702 5703 5704 5705 5706 5706 5707 5709 5710 5711 5711 5712 5713 5714 5715 5716 5716 5716 5717 5717 5718 5718 5718 5718 5718 5718 5718 5718 5718 5717 5717 5717 5717 5717 5717 5716 5716 5716 5715 5715 5714 5713 5713 5713 5713 5714 5715 5717 5718 5718 5719 5720 5722 5723 5724 5727 5728 5728 5729 5730 5731
5663 5665 5666 5668 5669 5670 5671 5674 5676 5678 5679 5680 5683 5684 5686 5687 5689 5691 5692 5693 5694 5695 5696 5697 5698 5699 5700 5701 5702 5703 5704 5705 5706 5707 5707 5708 5709 5710 5710 5711 5712 5713 5713 5714 5714 5714 5715 5715 5715 5715 5715 5715 5716 5715 5715 5715 5714 5714 5714 5714 5714 5714 5713 5713 5713 5712 5711 5711 5710 5711 5711 5713 5714 5715 5716 5717 5718 5719 5720 5721 5723 5724 5725 5725 5727 5728
5660 5661 5664 5665 5666 5666 5667 5669 5672 5673 5675 5677 5679 5681 5683 5685 5686 5687 5689 5690 5691 5692 5693 5694 5696 5697 5697 5699 5700 5700 5701 5702 5703 5704 5704 5705 5705 5706 5707 5708 5709 5709 5710 5710 5710 5711 5712 5712 5712 5712 5712 5713 5713 5713 5713 5712 5712 5712 5712 5712 5711 5711 5711 5711 5711 5710 5710 5709 5709 5709 5710 5711 5712 5712 5714 5715 5715 5716 5717 5718 5719 5721 5721 5722 5724 5725
5657 5658 5661 5662 5663 5664 5665 5666 5668 5670 5672 5674 5677 5679 5680 5682 5683 5685 5686 5687 5688 5689 5690 5691 5692 5693 5695 5696 5696 5697 5698 5699 5700 5700 5701 5701 5702 5702 5703 5704 5705 5706 5706 5707 5707 5708 5709 5709 5709 5709 5709 5710 5710 5710 5710 5710 5710 5710 5709 5709 5709 5709 5709 5709 5709 5709 5709 5708 5708 5708 5709 5710 5710 5710 5712 5713 5714 5715 5716 5716 5717 5718 5719 5720 5721 5722
5654 5656 5658 5659 5661 5662 5663 5664 5666 5668 5670 5672 5674 5676 5678 5679 5680 5682 5683 5684 5685 5686 5687 5688 5689 5690 5691 5692 5693 5694 5694 5695 5696 5697 5697 5698 5698 5699 5699 5700 5701 5702 5703 5703 5704 5705 5706 5706 5706 5706 5707 5707 5707 5707 5708 5708 5708 5707 5707 5707 5707 5707 5707 5707 5706 5707 5707 5707 5707 5707 5707 5708 5708 5709 5710 5711 5712 5713 5714 5714 5715 5715 5716 5717 5719 5720
5651 5653 5654 5656 5657 5659 5661 5662 5664 5666 5668 5669 5671 5673 5675 5676 5677 5678 5679 5681 5682 5683 5684 5685 5686 5687 5688 5689 5689 5690 5691 5691 5692 5693 5694 5694 5694 5695 5695 5696 5697 5698 5699 5699 5700 5701 5702 5702 5703 5703 5703 5703 5703 5704 5704 5705 5705 5705 5705 5705 5705 5705 5705 5705 5704 5704 5705 5705 5706 5705 5705 5705 5706 5707 5708 5709 5709 5710 5710 5711 5712 5712 5713 5715 5716 5716
5648 5650 5651 5653 5655 5657 5658 5660 5662 5664 5665 5666 5668 5670 5671 5673 5674 5675 5676 5678 5679 5680 5681 5682 5683 5684 5685 5685 5686 5687 5687 5688 5689 5690 5690 5690 5690 5691 5692 5692 5692 5693 5694 5695 5696 5696 5697 5699 5699 5700 5700 5700 5700 5701 5701 5701 5702 5702 5702 5702 5702 5702 5702 5702 5702 5702 5702 5703 5704 5704 5703 5703 5704 5705 5706 5706 5707 5707 5707 5708 5708 5709 5710 5711 5712 5712
5646 5647 5649 5650 5652 5654 5655 5657 5659 5661 5662 5663 5665 5667 5668 5670 5671 5672 5673 5675 5676 5677 5678 5679 5679 5680 5681 5682 5682 5682 5683 5684 5685 5685 5686 5686 5686 5687 5688 5688 5688 5689 5690 5691 5692 5693 5693 5694 5695 5696 5696 5697 5697 5698 5698 5698 5699 5699 5699 5699 5699 5699 5699 5700 5700 5700 5700 5700 5701 5701 5701 5701 5702 5702 5703 5704 5703 5703 5704 5704 5705 5705 5706 5707 5708 5709
5644 5645 5646 5648 5649 5651 5652 5654 5655 5657 5659 5660 5662 5664 5665 5667 5667 5668 5670 5671 5672 5673 5674 5675 5675 5676 5677 5678 5678 5678 5679 5679 5680 5680 5681 5681 5682 5682 5683 5684 5684 5685 5685 5686 5687 5688 5689 5690 5691 5691 5692 5693 5694 5694 5694 5695 5695 5696 5696 5696 5696 5696 5696 5697 5697 5698 5698 5698 5698 5699 5699 5699 5699 5700 5700 5700 5700 5700 5701 5701 5702 5702 5702 5703 5704 5705
5641 5642 5644 5645 5646 5648 5649 5651 5652 5654 5656 5657 5659 5660 5662 5663 5664 5665 5666 5668 5669 5670 5670 5671 5672 5673 5673 5674 5674 5675 5675 5675 5675 5676 5677 5677 5677 5678 5678 5679 5680 5681 5681 5682 5683 5684 5685 5685 5686 5687 5687 5689 5689 5690 5690 5691 5691 5692 5692 5693 5693 5692 5693 5693 5694 5694 5695 5695 5695 5696 5696 5697 5697 5697 5697 5697 5698 5698 5698 5699 5699 5699 5700 5701 5701 5703
5639 5640 5641 5643 5644 5645 5647 5649 5650 5651 5653 5654 5656 5658 5659 5660 5661 5662 5663 5664 5665 5666 5667 5668 5669 5669 5670 5670 5671 5671 5671 5671 5672 5672 5673 5673 5673 5674 5674 5675 5676 5676 5677 5678 5679 5679 5680 5681 5681 5682 5682 5684 5685 5685 5686 5687 5687 5688 5688 5689 5689 5690 5690 5690 5691 5691 5691 5692 5692 5692 5693 5694 5694 5694 5695 5695 5695 5695 5696 5696 5696 5697 5697 5698 5699 5701
5637 5638 5639 5641 5642 5643 5645 5646 5648 5649 5650 5652 5654 5655 5656 5657 5659 5660 5661 5662 5663 5663 5664 5665 5666 5666 5667 5668 5668 5668 5668 5669 5669 5669 5669 5669 5670 5670 5670 5671 5671 5672 5672 5673 5674 5674 5675 5675 5676 5677 5677 5678 5679 5680 5681 5682 5683 5684 5684 5685 5685 5686 5687 5687 5687 5688 5688 5688 5688 5688 5689 5690 5690 5691 5691 5691 5691 5692 5692 5693 5694 5695 5695 5695 5696 5697
5635 5636 5637 5639 5640 5641 5643 5644 5645 5647 5649 5651 5652 5654 5654 5655 5657 5658 5659 5660 5661 5661 5662 5663 5664 5664 5664 5665 5665 5666 5666 5666 5666 5666 5667 5667 5667 5667 5667 5667 5668 5668 5668 5669 5669 5669 5670 5670 5671 5672 5673 5673 5674 5674 5675 5676 5678 5679 5679 5680 5681 5682 5683 5683 5684 5684 5685 5685 5685 5685 5685 5686 5687 5687 5687 5687 5687 5688 5689 5689 5691 5692 5693 5693 5694 5695
5635 5635 5636 5638 5639 5640 5642 5643 5645 5646 5648 5650 5651 5652 5653 5654 5655 5656 5657 5658 5659 5660 5661 5661 5662 5662 5662 5663 5663 5663 5663 5664 5664 5664 5664 5664 5664 5664 5664 5664 5664 5664 5664 5664 5665 5665 5665 5666 5666 5667 5668 5669 5669 5668 5668 5670 5672 5673 5674 5675 5676 5677 5678 5679 5679 5680 5681 5681 5682 5682 5682 5683 5683 5684 5684 5684 5684 5685 5685 5686 5687 5689 5690 5690 5691 5692
5634 5635 5636 5638 5639 5640 5641 5643 5644 5646 5647 5649 5650 5651 5652 5653 5654 5655 5656 5657 5658 5658 5659 5659 5660 5660 5660 5660 5660 5660 5660 5661 5661 5661 5661 5661 5661 5661 5661 5660 5660 5660 5660 5660 5660 5661 5661 5661 5662 5662 5663 5664 5664 5663 5664 5665 5666 5668 5669 5670 5671 5672 5673 5674 5674 5675 5676 5677 5677 5678 5678 5679 5680 5680 5681 5681 5681 5681 5682 5683 5684 5685 5686 5687 5688 5689
5633 5635 5636 5638 5639 5640 5641 5642 5644 5645 5647 5648 5649 5650 5651 5652 5653 5654 5655 5656 5656 5657 5657 5657 5658 5658 5658 5658 5658 5657 5657 5657 5657 5657 5657 5657 5657 5657 5657 5656 5656 5656 5656 5656 5656 5657 5657 5657 5658 5658 5659 5659 5658 5659 5660 5661 5661 5662 5663 5665 5666 5667 5668 5668 5669 5670 5671 5672 5673 5673 5674 5674 5675 5675 5676 5677 5677 5677 5678 5679 5680 5681 5682 5683 5684 5685
5633 5634 5636 5637 5639 5640 5641 5643 5644 5645 5646 5648 5649 5650 5650 5651 5652 5653 5654 5654 5655 5655 5655 5655 5655 5655 5655 5655 5654 5654 5654 5653 5653 5653 5652 5652 5652 5652 5652 5652 5651 5651 5652 5652 5652 5652 5653 5653 5653 5654 5654 5654 5654 5655 5656 5656 5657 5657 5658 5660 5661 5662 5663 5663 5664 5665 5665 5666 5667 5668 5669 5670 5671 5671 5672 5672 5673 5673 5674 5675 5676 5677 5678 5679 5679 5680
5632 5634 5635 5636 5638 5640 5641 5642 5644 5645 5646 5647 5648 5649 5649 5650 5651 5652 5652 5653 5653 5653 5653 5653 5653 5653 5652 5651 5651 5650 5649 5649 5648 5648 5648 5647 5647 5647 5646 5646 5646 5646 5647 5647 5647 5647 5647 5648 5648 5649 5649 5649 5650 5650 5651 5651 5652 5653 5654 5654 5656 5657 5658 5659 5659 5660 5660 5661 5663 5664 5664 5665 5666 5667 5667 5668 5669 5669 5670 5671 5671 5672 5673 5674 5675 5675